# Land Stadt Wetter Temperatur Luftdruck Luftfeuchtigkeit Sichtweite Windgeschwindigkeit Windrichtung Ortszeit
1 sa Riad Clear 39 1013 5 10000 17 190 02.08.2018 14:21
2 tr Alanya Clear 27 1020 6 10000 11 360 02.08.2018 14:22
3 in Nagpur Haze 38 1008 11 4000 9 330 02.08.2018 14:21
4 ae Dubai Clear 37 1010 13 10000 20 320 02.08.2018 14:21
5 qa Doha Clear 37 1010 14 10000 17 110 02.08.2018 14:23
6 cn Lhasa Clouds 14 998 15 10000 35 214 02.08.2018 14:22
7 iq Bagdad Clear 37 1011 16 10000 19 320 02.08.2018 14:22
8 us Tucson Clear 15 1011 19 10000 8 168 02.08.2018 14:21
9 af Kabul Clear 19 1019 20 10000 22 360 02.08.2018 14:21
10 gr Athen Clouds 21 1021 26 10000 15 180 02.08.2018 14:22
11 us Death Valley Clouds 9 1006 26 10000 6 324 02.08.2018 14:22
12 bg Sofia Clouds 18 1020 29 10000 6 0 02.08.2018 14:21
13 tr Ankara Clouds 16 1021 29 10000 17 290 02.08.2018 14:23
14 mn Ulaanbaatar Clouds 7 1017 31 10000 29 330 02.08.2018 14:23
15 ru Surgut Clear 6 1039 33 10000 18 200 02.08.2018 14:23
16 au Alice Springs Clear 16 1021 33 10000 11 150 02.08.2018 14:21
17 eg Kairo Clear 26 1018 34 10000 24 360 02.08.2018 14:22
18 us Las Vegas Clouds 15 1007 36 10000 6 160 02.08.2018 14:21
19 no Oslo Clear 8 1011 37 10000 10 312 02.08.2018 14:23
20 bg Warna Clouds 17 1020 37 10000 24 120 02.08.2018 14:21
21 de Nürnberg Clear 11 1021 37 10000 15 310 02.08.2018 14:21
22 fi Helsinki Clear 11 1003 37 10000 26 190 02.08.2018 14:21
23 gb Manchester Clouds 12 1028 40 10000 6 0 02.08.2018 14:21
24 et Addis Abeba Clouds 22 1025 40 10000 11 130 02.08.2018 14:23
25 de Trier Clear 11 1023 40 10000 6 320 02.08.2018 14:21
26 de Torfhaus Clouds 9 1022 40 10000 3 105 02.08.2018 14:22
27 de Stuttgart Clouds 13 1022 41 10000 11 320 02.08.2018 14:22
28 ch Andermatt Clouds 7 1019 41 10000 26 50 02.08.2018 14:23
29 de Frankfurt Clear 11 1023 43 10000 7 0 02.08.2018 14:22
30 ru Jakutsk Clear -3 1023 43 10000 14 290 02.08.2018 14:22
31 ma Marrakesch Clear 24 1014 43 10000 9 40 02.08.2018 14:23
32 au Sydney Clear 13 1015 44 10000 15 280 02.08.2018 14:22
33 fr Bordeaux Clear 20 1016 45 10000 22 110 02.08.2018 14:21
34 kr Seoul Clear 21 1017 45 10000 6 60 02.08.2018 14:21
35 de Magdeburg Clouds 12 1021 46 10000 3 285 02.08.2018 14:22
36 au Perth Clear 21 1021 46 10000 13 140 02.08.2018 14:21
37 de Köln Clouds 10 1025 46 10000 13 0 02.08.2018 14:21
38 fr Paris Clear 14 1023 47 10000 19 30 02.08.2018 14:22
39 ch Bern Clouds 15 1019 48 10000 13 350 02.08.2018 14:23
40 fi Rovaniemi Clouds 6 1001 49 10000 7 360 02.08.2018 14:21
41 de Braunschweig Clouds 10 1021 49 10000 26 290 02.08.2018 14:21
42 de Kassel Clouds 8 1023 49 10000 20 310 02.08.2018 14:21
43 jp Nagasaki Clear 20 1016 49 10000 6 350 02.08.2018 14:21
44 de Dresden Clouds 8 1020 49 10000 24 290 02.08.2018 14:22
45 de Hiddensee Rain 11 1020 50 10000 3 247 02.08.2018 14:21
46 at Innsbruck Clouds 13 1019 50 10000 13 70 02.08.2018 14:23
47 gb London Clouds 12 1028 50 10000 20 90 02.08.2018 14:22
48 de Berlin Clouds 12 1018 50 10000 32 280 02.08.2018 14:21
49 de Hamburg Clouds 9 1020 50 10000 33 300 02.08.2018 14:21
50 ma Casablanca Clouds 20 1016 52 10000 7 340 02.08.2018 14:23
51 us New York Clouds 2 1011 52 10000 7 0 02.08.2018 14:22
52 de Bremen Clouds 10 1023 53 10000 33 330 02.08.2018 14:22
53 de Hannover Clouds 12 1022 53 10000 30 300 02.08.2018 14:21
54 ad Andorra la Vella Clouds 9 1016 54 10000 11 0 02.08.2018 14:22
55 cl Santiago Fog 12 1014 54 3000 1 282 02.08.2018 14:23
56 gb Glasgow Clouds 13 1027 54 10000 19 220 02.08.2018 14:21
57 it Mailand Clouds 18 1019 55 10000 7 0 02.08.2018 14:21
58 us Nome Clear 2 1024 55 10000 13 40 02.08.2018 14:23
59 es Sevilla Clouds 22 1014 56 10000 6 0 02.08.2018 14:22
60 ie Dublin Clouds 12 1026 58 10000 15 150 02.08.2018 14:21
61 de Oberstdorf Clouds 12 1019 58 7866 2 157 02.08.2018 14:21
62 ru Moskau Clouds 14 1013 58 10000 22 210 02.08.2018 14:22
63 id Jakarta Clouds 30 1009 58 6000 15 10 02.08.2018 14:22
64 za Kapstadt Clear 23 1015 60 10000 13 310 02.08.2018 14:22
65 cd Kisangani Clouds 30 1008 60 10000 7 93 02.08.2018 14:23
66 mg Antananarivo Clouds 24 1021 60 10000 20 110 02.08.2018 14:21
67 de Helgoland Clouds 8 1023 61 10000 39 320 02.08.2018 14:22
68 in Mumbai Smoke 33 1008 62 4000 19 280 02.08.2018 14:22
69 ua Kiew Clouds 15 1015 62 9000 18 200 02.08.2018 14:21
70 es Barcelona Clouds 15 1018 63 10000 22 70 02.08.2018 14:22
71 fr Nizza Clouds 16 1019 63 10000 13 100 02.08.2018 14:22
72 it Rom Clear 15 1017 63 10000 7 110 02.08.2018 14:23
73 bo Potisi Clear 5 1017 63 10000 5 292 02.08.2018 14:22
74 us Fairbanks Clear -2 1026 63 10000 11 60 02.08.2018 14:23
75 es Las Palmas de Gran Canaria Clouds 22 1017 64 10000 22 60 02.08.2018 14:21
76 ke Nairobi Rain 23 1020 64 10000 17 80 02.08.2018 14:22
77 us Miami Clouds 22 1017 64 10000 9 0 02.08.2018 14:23
78 no Hammerfest Clouds 2 1007 64 10000 6 0 02.08.2018 14:22
79 de München Clouds 12 1020 66 10000 17 330 02.08.2018 14:21
80 de Emden Clouds 9 1025 66 10000 13 338 02.08.2018 14:21
81 de Flensburg Clouds 9 1019 66 10000 50 300 02.08.2018 14:21
82 es Palma de Mallorca Clouds 17 1016 67 10000 11 50 02.08.2018 14:22
83 us Los Angeles Clouds 13 1013 67 10000 5 212 02.08.2018 14:22
84 es Madrid Clouds 14 1014 67 10000 2 0 02.08.2018 14:23
85 th Bangkok Clouds 31 1005 68 10000 14 180 02.08.2018 14:21
86 ca Montreal Clouds -3 1004 68 10000 6 20 02.08.2018 14:22
87 de Freiburg Clouds 14 1018 69 10000 13 249 02.08.2018 14:22
88 gl Nuuk Clouds 1 1008 69 10000 2 0 02.08.2018 14:22
89 mx Mexiko Stadt Clouds 13 1026 71 10000 4 60 02.08.2018 14:21
90 cn Peking Rain 14 1012 71 10000 9 122 02.08.2018 14:23
91 es Tarifa Clouds 19 1015 72 10000 13 220 02.08.2018 14:21
92 pt Lissabon Clouds 18 1015 72 10000 11 120 02.08.2018 14:22
93 tr Istanbul Clouds 16 1023 72 10000 15 250 02.08.2018 14:23
94 us Honolulu Clouds 22 1018 73 10000 18 64 02.08.2018 14:22
95 au Darwin Clouds 29 1010 74 10000 7 260 02.08.2018 14:22
96 us Chicago Clouds 0 1019 74 10000 9 290 02.08.2018 14:23
97 mv Male Clouds 31 1010 74 10000 20 260 02.08.2018 14:23
98 bo La Paz Clouds 3 1037 75 10000 4 0 02.08.2018 14:22
99 at Wien Rain 10 1018 76 10000 28 350 02.08.2018 14:22
100 is Reykjavik Rain 7 1019 76 10000 22 100 02.08.2018 14:22
101 jp Tokio Clouds 14 1020 77 10000 37 60 02.08.2018 14:22
102 it Palermo Clear 20 1014 77 10000 15 40 02.08.2018 14:22
103 ck Avarua Rain 26 1016 78 10000 24 90 02.08.2018 14:22
104 vn Hanoi Clouds 29 1005 79 10000 19 120 02.08.2018 14:21
105 ph Manila Clouds 29 1005 79 10000 22 250 02.08.2018 14:21
106 ru Amderma Clouds 3 1016 80 10000 34 200 02.08.2018 14:23
107 uy Montevideo Clear 18 1018 82 10000 33 50 02.08.2018 14:22
108 nz Wellington Clouds 15 1009 82 10000 26 360 02.08.2018 14:23
109 ar Buenos Aires Rain 20 1016 82 10000 15 40 02.08.2018 14:22
110 pg Port Moresby Clouds 26 1010 83 10000 3 86 02.08.2018 14:21
111 mx Veracruz Clear 23 1014 83 9656 5 337 02.08.2018 14:21
112 ru Werchojansk Clouds -14 1022 85 10000 2 152 02.08.2018 14:22
113 se Stockholm Drizzle 2 1004 87 10000 24 340 02.08.2018 14:23
114 ar Ushuaia Drizzle 6 1007 87 10000 7 360 02.08.2018 14:22
115 pe Cusco Clouds 3 1033 87 10000 6 100 02.08.2018 14:23
116 ec San Cristobal Clouds 24 1010 88 10000 13 132 02.08.2018 14:22
117 br Rio de Janeiro Clouds 23 1015 88 10000 6 310 02.08.2018 14:22
118 cn Shanghai Clouds 20 1010 88 10000 14 160 02.08.2018 14:21
119 do Santo Domingo Clouds 24 1015 88 10000 7 50 02.08.2018 14:21
120 mn Uliastai Clouds 3 1016 88 10000 2 301 02.08.2018 14:23
121 sb Honiara Clouds 26 1011 89 10000 9 123 02.08.2018 14:22
122 br Manaus Clouds 25 1012 89 10000 4 40 02.08.2018 14:21
123 us Denver Clouds -2 1004 90 10000 9 336 02.08.2018 14:21
124 ru Anadyr Clear -8 1025 93 10000 22 10 02.08.2018 14:23
125 bs Nassau Clear 22 1016 94 10000 4 0 02.08.2018 14:22
126 fj Suva Clouds 25 1013 94 10000 11 91 02.08.2018 14:21
127 in Jagatsukh Clouds 9 1019 95 1521 5 178 02.08.2018 14:22
128 ar Esquel Clouds 2 1014 100 10000 7 300 02.08.2018 14:22